{"data":{"norad_id":67060,"intl_designator":"2025-295B","name":"HULIANWANG DIGUI-120","alt_names":[],"object_type":"PAYLOAD","status":"ACTIVE","operator":null,"country":"PRC","launch_date":"2025-12-11","launch_site_code":"WSC","launch_vehicle":null,"mission":null,"orbit_class":"UNKNOWN","rcs_meters":null,"size_class":null,"mass_kg":null,"dimensions":null,"purposes":[],"wikipedia_slug":null,"has_3d_model":false,"image_url":null,"decayed_at":null,"tle_current":{"epoch":"2026-05-25T05:02:38.332896Z","epoch_age_seconds":53989,"freshness":"FRESH","line1":"1 67060U 25295B   26145.21016589 -.00000087  00000+0  80466-4 0  9995","line2":"2 67060  50.0030 108.0509 0000832 355.8972   4.1893 13.29327323 22446","mean_motion":13.29327323,"eccentricity":8.32e-5,"inclination_deg":50.003,"raan_deg":108.0509,"arg_perigee_deg":355.8972,"mean_anomaly_deg":4.1893,"bstar":8.0466e-5,"rev_number":2244,"period_min":108.32546469821,"perigee_km":1148.6752945536,"apogee_km":1149.9278603329,"semimajor_km":7527.4385774433,"source":"CELESTRAK","updated_at":"2026-05-25T13:38:06.700964Z"}}}